Durango, Mexico

2:52 AM CST on January 23, 2018 (GMT -0600)
Durango

Weather History for MMDO - September, 2012

Change the Weather History Date:

Wednesday, September 26, 2012

  Actual Average Record
Temperature  
Mean Temperature 66 °F -  
Max Temperature 79 °F 77 °F 87 °F (1999)
Min Temperature 53 °F 48 °F 46 °F (2002)
Cooling Degree Days 1    
Growing Degree Days 16 (Base 50)    
Moisture  
Dew Point 50 °F    
Average Humidity 56    
Maximum Humidity 82    
Minimum Humidity 20    
Precipitation  
Precipitation 0.01 in - - ()
Sea Level Pressure  
Sea Level Pressure 29.96 in    
Wind  
Wind Speed 2 mph ()    
Max Wind Speed 10 mph    
Max Gust Speed -    
Visibility 9.5 miles    
Events      
Averages and records for this station are not official NWS values.
T = Trace of Precipitation, MM = Missing Value Source: Averaged Metar Reports

Daily Weather History Graph

Daily Weather History Graph

Search for Another Location

Airport or City:

Trip Planner

Search our weather history database for the weather conditions in past years. The results will help you decide how hot, cold, wet, or windy it might be!

Date:

Astronomy

Sep. 26, 2012 Rise Set
Actual Time 7:48 AM CDT 7:49 PM CDT
Civil Twilight 7:25 AM CDT 8:12 PM CDT
Nautical Twilight 6:59 AM CDT 8:38 PM CDT
Astronomical Twilight 6:32 AM CDT 9:05 PM CDT
Moon 5:35 PM CDT (9/26) 4:36 AM CDT (9/26)
Length of Visible Light 12h 46m
Length of Day
12h 01m
Waxing Gibbous, 88% of the Moon is Illuminated
Sep 26
Waxing Gibbous
Sep 29
Full
Oct 8
Last Quarter
Oct 15
New
Oct 21
First Quarter

Hourly Weather History & Observations

Time (CDT) Temp. Dew Point Humidity Pressure Visibility Wind Dir Wind Speed Gust Speed Precip Events Conditions
12:55 AM 67 °F 48 °F 40% 29.70 in 6 mi Calm Calm - -   Mostly Cloudy
3:55 AM 60 °F 53 °F 70% 29.73 in 6 mi Calm Calm - -   Mostly Cloudy
5:50 AM 55.4 °F 48.2 °F 77% 30.15 in 10.0 mi NW 2.3 mph - N/A   Scattered Clouds
6:48 AM 53.6 °F 48.2 °F 82% 29.79 in 10.0 mi Calm Calm - N/A   Scattered Clouds
6:55 AM 59 °F 51 °F 66% 29.78 in 6 mi Calm Calm - -   Partly Cloudy
7:42 AM 53.6 °F 48.2 °F 82% 30.17 in 8.0 mi NW 2.3 mph - N/A   Mostly Cloudy
8:43 AM 55.4 °F 48.2 °F 77% 30.20 in 8.0 mi NNW 4.6 mph - N/A   Mostly Cloudy
9:50 AM 63 °F 52 °F 58% 29.87 in 12 mi ESE 2.2 mph - -   Partly Cloudy
9:52 AM 60.8 °F 50.0 °F 68% 29.84 in 6.0 mi NNE 2.3 mph - N/A   Mostly Cloudy
10:44 AM 69.8 °F 50.0 °F 49% 30.22 in 6.0 mi Calm Calm - N/A   Mostly Cloudy
11:44 AM 71.6 °F 51.8 °F 50% 30.21 in 8.0 mi WSW 3.5 mph - N/A   Mostly Cloudy
12:43 PM 78 °F 45 °F 21% 29.86 in 25 mi Calm Calm - -   Scattered Clouds
12:48 PM 75.2 °F 51.8 °F 44% 29.78 in 8.0 mi West 2.3 mph - N/A   Mostly Cloudy
1:40 PM 77.0 °F 50.0 °F 39% 30.17 in 12.0 mi East 6.9 mph - N/A   Mostly Cloudy
2:41 PM 77.0 °F 46.4 °F 34% 30.14 in 12.0 mi Calm Calm - N/A   Overcast
3:40 PM 79 °F 45 °F 20% 29.75 in 25 mi Calm Calm - -   Overcast
3:42 PM 75.2 °F 46.4 °F 36% 29.74 in 12.0 mi South 5.8 mph - N/A   Overcast
4:43 PM 69.8 °F 50.0 °F 49% 30.14 in 12.0 mi SSW 6.9 mph - N/A   Overcast
5:45 PM 68.0 °F 51.8 °F 56% 30.14 in 12.0 mi NW 10.4 mph - N/A   Overcast
6:46 PM 66.2 °F 53.6 °F 64% 29.81 in 12.0 mi Calm Calm - N/A   Overcast
7:40 PM 64.4 °F 53.6 °F 68% 30.18 in 12.0 mi Calm Calm - N/A   Overcast
9:52 PM 62.6 °F 55.4 °F 77% 29.81 in 12.0 mi Calm Calm - N/A   Unknown